| time (UTC) | temp F | wind direction | speed MPH | gust MPH | rain 1hr in | rain 24hr in | rain mn in | humidity % | barometer mb |
| 20260901192557 | 68 | 169 | 8.0 | 14.0 | 0.00 | 0.00 | 0.00 | 26 | 1020.8 |
| 20260901192057 | 67 | 50 | 4.0 | 14.0 | 0.00 | 0.00 | 0.00 | 29 | 1020.8 |
| 20260901191606 | 66 | 87 | 6.0 | 14.0 | 0.00 | 0.00 | 0.00 | 31 | 1020.9 |
| 20260901191057 | 66 | 64 | 6.0 | 14.0 | 0.00 | 0.00 | 0.00 | 29 | 1021.1 |
| 20260901190557 | 65 | 144 | 7.0 | 17.0 | 0.00 | 0.00 | 0.00 | 29 | 1021.0 |
| 20260901185558 | 66 | 99 | 7.0 | 12.0 | 0.00 | 0.00 | 0.00 | 32 | 1021.3 |
| 20260901185057 | 65 | 119 | 6.0 | 12.0 | 0.00 | 0.00 | 0.00 | 31 | 1021.4 |
| 20260901184626 | 65 | 111 | 5.0 | 11.0 | 0.00 | 0.00 | 0.00 | 30 | 1021.4 |
| 20260901184058 | 65 | 105 | 7.0 | 13.0 | 0.00 | 0.00 | 0.00 | 30 | 1021.3 |
| 20260901183558 | 64 | 112 | 6.0 | 13.0 | 0.00 | 0.00 | 0.00 | 30 | 1021.4 |
| 20260901183106 | 65 | 77 | 7.0 | 11.0 | 0.00 | 0.00 | 0.00 | 29 | 1021.5 |
| 20260901182557 | 64 | 162 | 5.0 | 12.0 | 0.00 | 0.00 | 0.00 | 31 | 1021.5 |
| 20260901182057 | 64 | 136 | 4.0 | 12.0 | 0.00 | 0.00 | 0.00 | 32 | 1021.6 |
| 20260901181607 | 64 | 165 | 6.0 | 13.0 | 0.00 | 0.00 | 0.00 | 31 | 1021.7 |
| 20260901181058 | 64 | 114 | 7.0 | 13.0 | 0.00 | 0.00 | 0.00 | 32 | 1021.8 |
| 20260901180558 | 64 | 358 | 5.0 | 11.0 | 0.00 | 0.00 | 0.00 | 32 | 1021.7 |
| 20260901180105 | 64 | 138 | 6.0 | 11.0 | 0.00 | 0.00 | 0.00 | 34 | 1021.7 |
| 20260901175557 | 64 | 68 | 5.0 | 10.0 | 0.00 | 0.00 | 0.00 | 33 | 1021.7 |
| 20260901175057 | 65 | 144 | 5.0 | 10.0 | 0.00 | 0.00 | 0.00 | 32 | 1021.7 |
| 20260901174607 | 65 | 104 | 4.0 | 10.0 | 0.00 | 0.00 | 0.00 | 34 | 1021.6 |
| 20260901174057 | 66 | 120 | 1.0 | 6.0 | 0.00 | 0.00 | 0.00 | 31 | 1021.7 |
| 20260901173556 | 66 | 44 | 1.0 | 6.0 | 0.00 | 0.00 | 0.00 | 33 | 1021.7 |
| 20260901173104 | 66 | 55 | 1.0 | 4.0 | 0.00 | 0.00 | 0.00 | 38 | 1021.8 |
| 20260901172557 | 65 | 24 | 0.0 | 4.0 | 0.00 | 0.00 | 0.00 | 36 | 1021.7 |
| 20260901172058 | 65 | 83 | 1.0 | 7.0 | 0.00 | 0.00 | 0.00 | 34 | 1021.9 |
| 20260901171605 | 64 | 39 | 1.0 | 7.0 | 0.00 | 0.00 | 0.00 | 36 | 1021.8 |
| 20260901171057 | 64 | 87 | 2.0 | 7.0 | 0.00 | 0.00 | 0.00 | 34 | 1021.6 |
| 20260901170558 | 64 | 0 | 1.0 | 5.0 | 0.00 | 0.00 | 0.00 | 36 | 1021.7 |
| 20260901170120 | 64 | 51 | 1.0 | 4.0 | 0.00 | 0.00 | 0.00 | 36 | 1021.7 |
| 20260901165557 | 64 | 301 | 2.0 | 4.0 | 0.00 | 0.00 | 0.00 | 36 | 1021.7 |
| 20260901165058 | 63 | 297 | 1.0 | 4.0 | 0.00 | 0.00 | 0.00 | 35 | 1021.7 |
| 20260901164608 | 62 | 0 | 0.0 | 4.0 | 0.00 | 0.00 | 0.00 | 36 | 1021.8 |
| 20260901164057 | 62 | 68 | 2.0 | 5.0 | 0.00 | 0.00 | 0.00 | 38 | 1021.6 |
| 20260901163557 | 62 | 326 | 2.0 | 5.0 | 0.00 | 0.00 | 0.00 | 40 | 1021.7 |
| 20260901163105 | 62 | 46 | 2.0 | 4.0 | 0.00 | 0.00 | 0.00 | 39 | 1021.7 |
| 20260901162556 | 61 | 276 | 1.0 | 5.0 | 0.00 | 0.00 | 0.00 | 41 | 1021.7 |
| 20260901162058 | 61 | 63 | 3.0 | 5.0 | 0.00 | 0.00 | 0.00 | 41 | 1021.7 |
| 20260901161610 | 61 | 63 | 1.0 | 5.0 | 0.00 | 0.00 | 0.00 | 41 | 1021.7 |
| 20260901161058 | 61 | 62 | 1.0 | 5.0 | 0.00 | 0.00 | 0.00 | 41 | 1021.6 |
| 20260901160559 | 60 | 82 | 1.0 | 5.0 | 0.00 | 0.00 | 0.00 | 43 | 1021.7 |
| 20260901160103 | 59 | 54 | 1.0 | 5.0 | 0.00 | 0.00 | 0.00 | 45 | 1021.6 |
| 20260901155557 | 59 | 77 | 3.0 | 4.0 | 0.00 | 0.00 | 0.00 | 41 | 1021.7 |
| 20260901155057 | 60 | 51 | 1.0 | 3.0 | 0.00 | 0.00 | 0.00 | 42 | 1021.5 |
| 20260901154618 | 59 | 46 | 1.0 | 2.0 | 0.00 | 0.00 | 0.00 | 44 | 1021.5 |
| 20260901154057 | 58 | 0 | 0.0 | 3.0 | 0.00 | 0.00 | 0.00 | 43 | 1021.5 |
| 20260901153559 | 57 | 0 | 1.0 | 3.0 | 0.00 | 0.00 | 0.00 | 45 | 1021.5 |
| 20260901153118 | 57 | 136 | 0.0 | 2.0 | 0.00 | 0.00 | 0.00 | 45 | 1021.6 |
| 20260901152556 | 56 | 67 | 0.0 | 2.0 | 0.00 | 0.00 | 0.00 | 48 | 1021.6 |
| 20260901152058 | 56 | 56 | 0.0 | 2.0 | 0.00 | 0.00 | 0.00 | 48 | 1021.5 |
| 20260901151605 | 56 | 60 | 1.0 | 3.0 | 0.00 | 0.00 | 0.00 | 50 | 1021.5 |
| 20260901151058 | 55 | 0 | 1.0 | 3.0 | 0.00 | 0.00 | 0.00 | 50 | 1021.5 |
| 20260901150600 | 54 | 53 | 1.0 | 3.0 | 0.00 | 0.00 | 0.00 | 50 | 1021.3 |
| 20260901150110 | 54 | 53 | 2.0 | 3.0 | 0.00 | 0.00 | 0.00 | 49 | 1021.7 |
| 20260901145557 | 54 | 82 | 0.0 | 2.0 | 0.00 | 0.00 | 0.00 | 51 | 1021.6 |
| 20260901145117 | 53 | 107 | 1.0 | 2.0 | 0.00 | 0.00 | 0.00 | 49 | 1021.5 |
| 20260901144604 | 53 | 0 | 0.0 | 3.0 | 0.00 | 0.00 | 0.00 | 54 | 1021.5 |
| 20260901144057 | 52 | 112 | 0.0 | 3.0 | 0.00 | 0.00 | 0.00 | 51 | 1021.5 |
| 20260901143557 | 52 | 56 | 0.0 | 2.0 | 0.00 | 0.00 | 0.00 | 50 | 1021.5 |
| 20260901143107 | 51 | 0 | 0.0 | 2.0 | 0.00 | 0.00 | 0.00 | 53 | 1021.4 |
| 20260901142557 | 49 | 0 | 0.0 | 2.0 | 0.00 | 0.00 | 0.00 | 55 | 1021.3 |
| 20260901142057 | 48 | 0 | 0.0 | 2.0 | 0.00 | 0.00 | 0.00 | 56 | 1021.2 |
| 20260901141607 | 47 | 0 | 0.0 | 2.0 | 0.00 | 0.00 | 0.00 | 59 | 1021.2 |
| 20260901141059 | 48 | 164 | 0.0 | 4.0 | 0.00 | 0.00 | 0.00 | 58 | 1021.2 |
| 20260901140557 | 48 | 70 | 1.0 | 6.0 | 0.00 | 0.00 | 0.00 | 56 | 1021.1 |
| 20260901140110 | 48 | 96 | 2.0 | 6.0 | 0.00 | 0.00 | 0.00 | 56 | 1021.0 |
| 20260901135557 | 47 | 64 | 5.0 | 6.0 | 0.00 | 0.00 | 0.00 | 57 | 1020.9 |
| 20260901135057 | 44 | 75 | 2.0 | 4.0 | 0.00 | 0.00 | 0.00 | 64 | 1020.9 |
| 20260901134601 | 44 | 0 | 0.0 | 2.0 | 0.00 | 0.00 | 0.00 | 68 | 1020.8 |
| 20260901134057 | 45 | 0 | 0.0 | 1.0 | 0.00 | 0.00 | 0.00 | 65 | 1020.7 |
| 20260901133557 | 46 | 0 | 0.0 | 0.0 | 0.00 | 0.00 | 0.00 | 65 | 1020.7 |
| 20260901133113 | 46 | 0 | 0.0 | 1.0 | 0.00 | 0.00 | 0.00 | 64 | 1020.6 |
| 20260901132559 | 46 | 0 | 0.0 | 2.0 | 0.00 | 0.00 | 0.00 | 63 | 1020.6 |
| 20260901132101 | 47 | 0 | 0.0 | 2.0 | 0.00 | 0.00 | 0.00 | 61 | 1020.6 |
| 20260901131603 | 47 | 143 | 0.0 | 2.0 | 0.00 | 0.00 | 0.00 | 60 | 1020.5 |
| 20260901131101 | 47 | 0 | 0.0 | 2.0 | 0.00 | 0.00 | 0.00 | 60 | 1020.6 |
| 20260901130557 | 48 | 0 | 0.0 | 2.0 | 0.00 | 0.00 | 0.00 | 59 | 1020.5 |
| 20260901130106 | 47 | 0 | 0.0 | 2.0 | 0.00 | 0.00 | 0.00 | 60 | 1020.4 |
| 20260901125557 | 47 | 152 | 0.0 | 2.0 | 0.00 | 0.00 | 0.00 | 61 | 1020.6 |
| 20260901125057 | 47 | 0 | 0.0 | 0.0 | 0.00 | 0.00 | 0.00 | 63 | 1020.5 |
| 20260901124613 | 47 | 167 | 0.0 | 1.0 | 0.00 | 0.00 | 0.00 | 64 | 1020.4 |
| 20260901124056 | 47 | 0 | 0.0 | 1.0 | 0.00 | 0.00 | 0.00 | 66 | 1020.5 |
| 20260901123601 | 47 | 0 | 0.0 | 4.0 | 0.00 | 0.00 | 0.00 | 69 | 1020.3 |
| 20260901123120 | 47 | 0 | 0.0 | 4.0 | 0.00 | 0.00 | 0.00 | 69 | 1020.4 |
| 20260901122557 | 46 | 76 | 0.0 | 2.0 | 0.00 | 0.00 | 0.00 | 71 | 1020.4 |
| 20260901122057 | 46 | 0 | 0.0 | 2.0 | 0.00 | 0.00 | 0.00 | 73 | 1020.3 |
| 20260901121608 | 45 | 0 | 0.0 | 2.0 | 0.00 | 0.00 | 0.00 | 74 | 1020.2 |
| 20260901121100 | 45 | 0 | 0.0 | 1.0 | 0.00 | 0.00 | 0.00 | 74 | 1020.2 |
| 20260901120601 | 45 | 191 | 0.0 | 1.0 | 0.00 | 0.00 | 0.00 | 74 | 1020.3 |
| 20260901120118 | 46 | 0 | 0.0 | 0.0 | 0.00 | 0.00 | 0.00 | 73 | 1020.4 |
| 20260901115559 | 47 | 0 | 0.0 | 1.0 | 0.00 | 0.00 | 0.00 | 72 | 1020.4 |
| 20260901115058 | 47 | 0 | 0.0 | 1.0 | 0.00 | 0.00 | 0.00 | 73 | 1020.4 |
| 20260901114603 | 47 | 0 | 0.0 | 2.0 | 0.00 | 0.00 | 0.00 | 73 | 1020.5 |
| 20260901114059 | 46 | 0 | 0.0 | 2.0 | 0.00 | 0.00 | 0.00 | 74 | 1020.4 |
| 20260901113559 | 47 | 0 | 0.0 | 2.0 | 0.00 | 0.00 | 0.00 | 72 | 1020.5 |
| 20260901113118 | 47 | 0 | 0.0 | 1.0 | 0.00 | 0.00 | 0.00 | 72 | 1020.4 |
| 20260901112600 | 47 | 0 | 0.0 | 2.0 | 0.00 | 0.00 | 0.00 | 72 | 1020.4 |
| 20260901112059 | 47 | 181 | 0.0 | 2.0 | 0.00 | 0.00 | 0.00 | 72 | 1020.4 |
| 20260901111605 | 47 | 0 | 0.0 | 1.0 | 0.00 | 0.00 | 0.00 | 72 | 1020.4 |
| 20260901111059 | 47 | 0 | 0.0 | 2.0 | 0.00 | 0.00 | 0.00 | 74 | 1020.4 |
| 20260901110558 | 47 | 0 | 0.0 | 2.0 | 0.00 | 0.00 | 0.00 | 74 | 1020.5 |
| 20260901110108 | 47 | 0 | 0.0 | 2.0 | 0.00 | 0.00 | 0.00 | 74 | 1020.4 |
| 20260901105559 | 47 | 171 | 0.0 | 1.0 | 0.00 | 0.00 | 0.00 | 74 | 1020.5 |
| 20260901105058 | 47 | 0 | 0.0 | 2.0 | 0.00 | 0.00 | 0.00 | 76 | 1020.4 |
| 20260901104603 | 47 | 0 | 0.0 | 2.0 | 0.00 | 0.00 | 0.00 | 76 | 1020.2 |
| 20260901104059 | 47 | 224 | 0.0 | 1.0 | 0.00 | 0.00 | 0.00 | 75 | 1020.2 |
| 20260901103559 | 48 | 0 | 0.0 | 1.0 | 0.00 | 0.00 | 0.00 | 74 | 1020.2 |
| 20260901103112 | 48 | 0 | 0.0 | 0.0 | 0.00 | 0.00 | 0.00 | 74 | 1020.2 |
| 20260901102600 | 48 | 0 | 0.0 | 1.0 | 0.00 | 0.00 | 0.00 | 74 | 1020.2 |
| 20260901102059 | 48 | 0 | 0.0 | 1.0 | 0.00 | 0.00 | 0.00 | 75 | 1020.2 |
| 20260901101605 | 48 | 173 | 0.0 | 1.0 | 0.00 | 0.00 | 0.00 | 74 | 1020.2 |
| 20260901101059 | 49 | 225 | 0.0 | 2.0 | 0.00 | 0.00 | 0.00 | 74 | 1020.4 |
| 20260901100559 | 48 | 0 | 0.0 | 2.0 | 0.00 | 0.00 | 0.00 | 75 | 1020.3 |
| 20260901100106 | 48 | 0 | 0.0 | 0.0 | 0.00 | 0.00 | 0.00 | 73 | 1020.3 |
| 20260901095558 | 49 | 0 | 0.0 | 0.0 | 0.00 | 0.00 | 0.00 | 72 | 1020.5 |
| 20260901095058 | 49 | 0 | 0.0 | 1.0 | 0.00 | 0.00 | 0.00 | 76 | 1020.4 |
| 20260901094603 | 49 | 0 | 0.0 | 1.0 | 0.00 | 0.00 | 0.00 | 73 | 1020.3 |
| 20260901094059 | 49 | 0 | 0.0 | 1.0 | 0.00 | 0.00 | 0.00 | 73 | 1020.4 |
| 20260901093558 | 49 | 0 | 0.0 | 1.0 | 0.00 | 0.00 | 0.00 | 71 | 1020.2 |
| 20260901093111 | 49 | 0 | 0.0 | 1.0 | 0.00 | 0.00 | 0.00 | 73 | 1020.2 |
| 20260901092559 | 49 | 0 | 0.0 | 1.0 | 0.00 | 0.00 | 0.00 | 71 | 1020.3 |
| 20260901092059 | 49 | 0 | 0.0 | 1.0 | 0.00 | 0.00 | 0.00 | 72 | 1020.2 |
| 20260901091611 | 49 | 0 | 0.0 | 2.0 | 0.00 | 0.00 | 0.00 | 72 | 1020.4 |
| 20260901091058 | 49 | 0 | 0.0 | 2.0 | 0.00 | 0.00 | 0.00 | 71 | 1020.3 |
| 20260901090559 | 50 | 0 | 0.0 | 1.0 | 0.00 | 0.00 | 0.00 | 72 | 1020.4 |
| 20260901085602 | 50 | 0 | 0.0 | 0.0 | 0.00 | 0.00 | 0.00 | 70 | 1020.6 |
| 20260901085059 | 50 | 0 | 0.0 | 0.0 | 0.00 | 0.00 | 0.00 | 69 | 1020.6 |
| 20260901084604 | 50 | 0 | 0.0 | 0.0 | 0.00 | 0.00 | 0.00 | 69 | 1020.4 |
| 20260901084100 | 51 | 0 | 0.0 | 0.0 | 0.00 | 0.00 | 0.00 | 69 | 1020.5 |
| 20260901083559 | 51 | 0 | 0.0 | 1.0 | 0.00 | 0.00 | 0.00 | 69 | 1020.6 |
| 20260901083107 | 50 | 0 | 0.0 | 1.0 | 0.00 | 0.00 | 0.00 | 68 | 1020.6 |
| 20260901082559 | 50 | 0 | 0.0 | 2.0 | 0.00 | 0.00 | 0.00 | 69 | 1020.7 |
| 20260901082059 | 50 | 0 | 0.0 | 2.0 | 0.00 | 0.00 | 0.00 | 69 | 1020.8 |
| 20260901081603 | 51 | 0 | 0.0 | 1.0 | 0.00 | 0.00 | 0.00 | 69 | 1021.0 |
| 20260901081058 | 51 | 0 | 0.0 | 0.0 | 0.00 | 0.00 | 0.00 | 70 | 1021.0 |
| 20260901080559 | 51 | 0 | 0.0 | 0.0 | 0.00 | 0.00 | 0.00 | 70 | 1020.9 |
| 20260901080109 | 51 | 0 | 0.0 | 0.0 | 0.00 | 0.00 | 0.00 | 70 | 1020.9 |
| 20260901075559 | 52 | 0 | 0.0 | 0.0 | 0.00 | 0.00 | 0.00 | 68 | 1020.9 |
| 20260901075059 | 51 | 0 | 0.0 | 1.0 | 0.00 | 0.00 | 0.00 | 67 | 1020.9 |
| 20260901074605 | 51 | 0 | 0.0 | 1.0 | 0.00 | 0.00 | 0.00 | 65 | 1021.0 |
| 20260901074059 | 51 | 0 | 0.0 | 1.0 | 0.00 | 0.00 | 0.00 | 65 | 1020.9 |
| 20260901073559 | 51 | 0 | 0.0 | 0.0 | 0.00 | 0.00 | 0.00 | 64 | 1021.1 |
| 20260901073105 | 52 | 0 | 0.0 | 1.0 | 0.00 | 0.00 | 0.00 | 64 | 1020.9 |
| 20260901072559 | 52 | 0 | 0.0 | 1.0 | 0.00 | 0.00 | 0.00 | 63 | 1020.9 |
| 20260901072102 | 52 | 0 | 0.0 | 1.0 | 0.00 | 0.00 | 0.00 | 63 | 1021.0 |
| 20260901071605 | 52 | 0 | 0.0 | 1.0 | 0.00 | 0.00 | 0.00 | 63 | 1020.9 |
| 20260901071058 | 52 | 0 | 0.0 | 2.0 | 0.00 | 0.00 | 0.00 | 64 | 1021.1 |
| 20260901070558 | 53 | 0 | 0.0 | 2.0 | 0.00 | 0.00 | 0.00 | 63 | 1021.1 |
| 20260901070106 | 52 | 126 | 0.0 | 2.0 | 0.00 | 0.00 | 0.00 | 63 | 1021.1 |
| 20260901065604 | 52 | 0 | 0.0 | 2.0 | 0.00 | 0.00 | 0.00 | 62 | 1021.1 |
| 20260901065100 | 53 | 0 | 0.0 | 1.0 | 0.00 | 0.00 | 0.00 | 61 | 1021.3 |
| 20260901064605 | 53 | 0 | 0.0 | 1.0 | 0.00 | 0.00 | 0.00 | 61 | 1021.3 |
| 20260901064058 | 53 | 0 | 0.0 | 0.0 | 0.00 | 0.00 | 0.00 | 61 | 1021.3 |
| 20260901063559 | 53 | 0 | 0.0 | 0.0 | 0.00 | 0.00 | 0.00 | 61 | 1021.3 |
| 20260901063116 | 53 | 0 | 0.0 | 1.0 | 0.00 | 0.00 | 0.00 | 60 | 1021.3 |
| 20260901062559 | 54 | 0 | 0.0 | 1.0 | 0.00 | 0.00 | 0.00 | 59 | 1021.2 |
| 20260901062059 | 54 | 0 | 0.0 | 1.0 | 0.00 | 0.00 | 0.00 | 60 | 1021.3 |
| 20260901061621 | 55 | 0 | 0.0 | 1.0 | 0.00 | 0.00 | 0.00 | 58 | 1021.3 |
| 20260901061059 | 55 | 0 | 0.0 | 5.0 | 0.00 | 0.00 | 0.00 | 58 | 1021.4 |
| 20260901060559 | 55 | 0 | 0.0 | 5.0 | 0.00 | 0.00 | 0.00 | 56 | 1021.4 |
| 20260901060106 | 55 | 54 | 2.0 | 5.0 | 0.00 | 0.00 | 0.00 | 56 | 1021.4 |
| 20260901055558 | 56 | 68 | 2.0 | 4.0 | 0.00 | 0.00 | 0.00 | 56 | 1021.5 |
| 20260901055058 | 56 | 65 | 2.0 | 4.0 | 0.00 | 0.00 | 0.00 | 56 | 1021.5 |
| 20260901054605 | 56 | 65 | 3.0 | 4.0 | 0.00 | 0.00 | 0.00 | 56 | 1021.5 |
| 20260901054059 | 55 | 66 | 0.0 | 3.0 | 0.00 | 0.00 | 0.00 | 57 | 1021.5 |
| 20260901053559 | 55 | 106 | 0.0 | 0.0 | 0.00 | 0.00 | 0.00 | 60 | 1021.5 |
| 20260901053107 | 55 | 0 | 0.0 | 1.0 | 0.00 | 0.00 | 0.00 | 60 | 1021.5 |
| 20260901052558 | 55 | 0 | 0.0 | 2.0 | 0.00 | 0.00 | 0.00 | 60 | 1021.6 |
| 20260901052058 | 55 | 0 | 0.0 | 2.0 | 0.00 | 0.00 | 0.00 | 59 | 1021.5 |
| 20260901051618 | 56 | 221 | 0.0 | 1.0 | 0.00 | 0.00 | 0.00 | 58 | 1021.6 |
| 20260901051059 | 56 | 0 | 0.0 | 2.0 | 0.00 | 0.00 | 0.00 | 58 | 1021.6 |
| 20260901050600 | 56 | 0 | 0.0 | 2.0 | 0.00 | 0.00 | 0.00 | 56 | 1021.6 |
| 20260901050109 | 57 | 170 | 0.0 | 2.0 | 0.00 | 0.00 | 0.00 | 56 | 1021.6 |
| 20260901045558 | 57 | 0 | 0.0 | 4.0 | 0.00 | 0.00 | 0.00 | 57 | 1021.5 |
| 20260901045058 | 57 | 0 | 0.0 | 4.0 | 0.00 | 0.00 | 0.00 | 55 | 1021.5 |
| 20260901044605 | 58 | 176 | 1.0 | 3.0 | 0.00 | 0.00 | 0.00 | 54 | 1021.5 |
| 20260901044101 | 58 | 186 | 0.0 | 4.0 | 0.00 | 0.00 | 0.00 | 54 | 1021.5 |
| 20260901043559 | 59 | 0 | 1.0 | 4.0 | 0.00 | 0.00 | 0.00 | 54 | 1021.3 |
| 20260901043108 | 59 | 48 | 1.0 | 4.0 | 0.00 | 0.00 | 0.00 | 53 | 1021.5 |
| 20260901042558 | 59 | 0 | 0.0 | 3.0 | 0.00 | 0.00 | 0.00 | 53 | 1021.4 |
| 20260901042058 | 59 | 0 | 0.0 | 3.0 | 0.00 | 0.00 | 0.00 | 53 | 1021.3 |
| 20260901041603 | 59 | 73 | 0.0 | 3.0 | 0.00 | 0.00 | 0.00 | 53 | 1021.4 |
| 20260901041102 | 60 | 106 | 0.0 | 7.0 | 0.00 | 0.00 | 0.00 | 52 | 1021.4 |
| 20260901040558 | 60 | 0 | 2.0 | 7.0 | 0.00 | 0.00 | 0.00 | 52 | 1021.4 |
| 20260901040106 | 60 | 62 | 2.0 | 7.0 | 0.00 | 0.00 | 0.00 | 53 | 1021.5 |
| 20260901035559 | 60 | 0 | 0.0 | 7.0 | 0.00 | 0.00 | 0.00 | 52 | 1021.4 |
| 20260901035059 | 60 | 152 | 3.0 | 7.0 | 0.00 | 0.00 | 0.00 | 52 | 1021.4 |
| 20260901034610 | 60 | 184 | 3.0 | 7.0 | 0.00 | 0.00 | 0.00 | 51 | 1021.2 |
| 20260901034058 | 61 | 183 | 1.0 | 5.0 | 0.00 | 0.00 | 0.00 | 51 | 1021.1 |
| 20260901033601 | 61 | 146 | 3.0 | 5.0 | 0.00 | 0.00 | 0.00 | 50 | 1021.1 |
| 20260901033115 | 61 | 116 | 0.0 | 4.0 | 0.00 | 0.00 | 0.00 | 50 | 1021.1 |
| 20260901032559 | 61 | 145 | 2.0 | 5.0 | 0.00 | 0.00 | 0.00 | 50 | 1021.0 |
| 20260901032059 | 62 | 66 | 2.0 | 5.0 | 0.00 | 0.00 | 0.00 | 50 | 1020.9 |
| 20260901031606 | 62 | 131 | 2.0 | 5.0 | 0.00 | 0.00 | 0.00 | 50 | 1020.9 |
| 20260901031058 | 62 | 149 | 0.0 | 6.0 | 0.00 | 0.00 | 0.00 | 51 | 1020.8 |
| 20260901030558 | 62 | 129 | 3.0 | 6.0 | 0.00 | 0.00 | 0.00 | 51 | 1020.7 |
| 20260901030105 | 63 | 74 | 0.0 | 4.0 | 0.00 | 0.00 | 0.00 | 52 | 1020.7 |
| 20260901025558 | 63 | 0 | 1.0 | 3.0 | 0.00 | 0.00 | 0.00 | 51 | 1020.7 |
| 20260901025059 | 63 | 0 | 1.0 | 5.0 | 0.00 | 0.00 | 0.00 | 51 | 1020.6 |
| 20260901024615 | 63 | 193 | 0.0 | 10.0 | 0.00 | 0.00 | 0.00 | 52 | 1020.4 |
| 20260901024100 | 64 | 62 | 4.0 | 10.0 | 0.00 | 0.00 | 0.00 | 51 | 1020.4 |
| 20260901023558 | 64 | 54 | 3.0 | 10.0 | 0.00 | 0.00 | 0.00 | 50 | 1020.4 |
| 20260901023106 | 64 | 53 | 0.0 | 4.0 | 0.00 | 0.00 | 0.00 | 50 | 1020.3 |
| 20260901022558 | 64 | 0 | 0.0 | 7.0 | 0.00 | 0.00 | 0.00 | 49 | 1020.2 |
| 20260901022100 | 65 | 159 | 2.0 | 9.0 | 0.00 | 0.00 | 0.00 | 47 | 1020.1 |
| 20260901021606 | 65 | 21 | 2.0 | 10.0 | 0.00 | 0.00 | 0.00 | 48 | 1020.1 |
| 20260901021058 | 66 | 56 | 4.0 | 12.0 | 0.00 | 0.00 | 0.00 | 48 | 1020.1 |
| 20260901020601 | 66 | 37 | 2.0 | 12.0 | 0.00 | 0.00 | 0.00 | 46 | 1020.1 |
| 20260901015559 | 67 | 11 | 3.0 | 8.0 | 0.00 | 0.00 | 0.00 | 46 | 1019.9 |
| 20260901015057 | 68 | 72 | 2.0 | 7.0 | 0.00 | 0.00 | 0.00 | 46 | 1019.8 |
| 20260901014610 | 68 | 51 | 1.0 | 10.0 | 0.00 | 0.00 | 0.00 | 47 | 1019.7 |
| 20260901014059 | 69 | 326 | 3.0 | 12.0 | 0.00 | 0.00 | 0.00 | 45 | 1019.6 |
| 20260901013559 | 69 | 53 | 4.0 | 16.0 | 0.00 | 0.00 | 0.00 | 43 | 1019.5 |
| 20260901013101 | 71 | 356 | 5.0 | 16.0 | 0.00 | 0.00 | 0.00 | 41 | 1019.5 |
| 20260901012558 | 72 | 323 | 2.0 | 13.0 | 0.00 | 0.00 | 0.00 | 37 | 1019.4 |
| 20260901012058 | 73 | 15 | 2.0 | 13.0 | 0.00 | 0.00 | 0.00 | 36 | 1019.4 |
| 20260901011610 | 74 | 25 | 4.0 | 10.0 | 0.00 | 0.00 | 0.00 | 28 | 1019.5 |
| 20260901011058 | 74 | 77 | 2.0 | 12.0 | 0.00 | 0.00 | 0.00 | 28 | 1019.5 |
| 20260901010558 | 74 | 100 | 5.0 | 12.0 | 0.00 | 0.00 | 0.00 | 28 | 1019.3 |
| 20260901010115 | 74 | 20 | 4.0 | 11.0 | 0.00 | 0.00 | 0.00 | 28 | 1019.4 |
| 20260901005559 | 74 | 94 | 4.0 | 10.0 | 0.00 | 0.00 | 0.00 | 28 | 1019.3 |
| 20260901005058 | 74 | 83 | 4.0 | 12.0 | 0.00 | 0.00 | 0.00 | 29 | 1019.4 |
| 20260901004618 | 74 | 60 | 5.0 | 12.0 | 0.00 | 0.00 | 0.00 | 28 | 1019.3 |
| 20260901004058 | 74 | 103 | 1.0 | 12.0 | 0.00 | 0.00 | 0.00 | 28 | 1019.4 |
| 20260901003602 | 74 | 120 | 4.0 | 12.0 | 0.00 | 0.00 | 0.00 | 28 | 1019.5 |
| 20260901003102 | 74 | 85 | 6.0 | 11.0 | 0.00 | 0.00 | 0.00 | 28 | 1019.6 |
| 20260901002559 | 75 | 122 | 5.0 | 12.0 | 0.00 | 0.00 | 0.00 | 28 | 1019.5 |
| 20260901002059 | 74 | 153 | 6.0 | 12.0 | 0.00 | 0.00 | 0.00 | 28 | 1019.6 |
| 20260901001606 | 75 | 105 | 5.0 | 10.0 | 0.00 | 0.00 | 0.00 | 28 | 1019.6 |
| 20260901001059 | 75 | 117 | 4.0 | 10.0 | 0.00 | 0.00 | 0.00 | 28 | 1019.6 |
| 20260901000601 | 75 | 82 | 6.0 | 12.0 | 0.00 | 0.00 | 0.00 | 28 | 1019.7 |
| 20260901000110 | 75 | 102 | 5.0 | 12.0 | 0.00 | 0.00 | 0.00 | 29 | 1019.7 |
| 20260831235558 | 74 | 115 | 4.0 | 11.0 | 0.00 | 0.00 | 0.00 | 29 | 1019.7 |
| 20260831235055 | 75 | 170 | 5.0 | 13.0 | 0.00 | 0.00 | 0.00 | 28 | 1019.6 |
| 20260831234609 | 75 | 142 | 6.0 | 15.0 | 0.00 | 0.00 | 0.00 | 29 | 1019.9 |
| 20260831234057 | 75 | 84 | 8.0 | 15.0 | 0.00 | 0.00 | 0.00 | 29 | 1019.7 |
| 20260831233556 | 75 | 136 | 8.0 | 13.0 | 0.00 | 0.00 | 0.00 | 28 | 1019.7 |
| 20260831233105 | 75 | 37 | 2.0 | 11.0 | 0.00 | 0.00 | 0.00 | 29 | 1019.6 |
| 20260831232558 | 74 | 0 | 6.0 | 11.0 | 0.00 | 0.00 | 0.00 | 28 | 1019.5 |
| 20260831232056 | 75 | 24 | 5.0 | 11.0 | 0.00 | 0.00 | 0.00 | 28 | 1019.6 |
| 20260831231609 | 75 | 130 | 7.0 | 11.0 | 0.00 | 0.00 | 0.00 | 29 | 1019.7 |
| 20260831231057 | 75 | 118 | 4.0 | 14.0 | 0.00 | 0.00 | 0.00 | 29 | 1019.8 |
| 20260831230557 | 75 | 235 | 4.0 | 14.0 | 0.00 | 0.00 | 0.00 | 30 | 1019.8 |
| 20260831225556 | 75 | 119 | 5.0 | 18.0 | 0.00 | 0.00 | 0.00 | 29 | 1019.9 |
| 20260831225056 | 75 | 96 | 4.0 | 18.0 | 0.00 | 0.00 | 0.00 | 29 | 1019.9 |
| 20260831224610 | 74 | 131 | 8.0 | 18.0 | 0.00 | 0.00 | 0.00 | 30 | 1019.9 |
| 20260831224058 | 75 | 0 | 2.0 | 10.0 | 0.00 | 0.00 | 0.00 | 29 | 1020.1 |
| 20260831223558 | 75 | 155 | 4.0 | 14.0 | 0.00 | 0.00 | 0.00 | 28 | 1020.2 |
| 20260831223107 | 75 | 73 | 5.0 | 17.0 | 0.00 | 0.00 | 0.00 | 28 | 1020.3 |
| 20260831222600 | 75 | 129 | 7.0 | 17.0 | 0.00 | 0.00 | 0.00 | 28 | 1020.3 |
| 20260831222057 | 76 | 84 | 3.0 | 12.0 | 0.00 | 0.00 | 0.00 | 29 | 1020.4 |
| 20260831221610 | 75 | 0 | 3.0 | 15.0 | 0.00 | 0.00 | 0.00 | 28 | 1020.5 |
| 20260831221101 | 76 | 118 | 7.0 | 15.0 | 0.00 | 0.00 | 0.00 | 29 | 1020.5 |
| 20260831220557 | 76 | 76 | 5.0 | 13.0 | 0.00 | 0.00 | 0.00 | 29 | 1020.4 |
| 20260831220105 | 75 | 84 | 3.0 | 15.0 | 0.00 | 0.00 | 0.00 | 29 | 1020.5 |
| 20260831215557 | 75 | 107 | 4.0 | 15.0 | 0.00 | 0.00 | 0.00 | 29 | 1020.5 |
| 20260831215058 | 75 | 46 | 6.0 | 14.0 | 0.00 | 0.00 | 0.00 | 30 | 1020.4 |
| 20260831214607 | 75 | 40 | 2.0 | 11.0 | 0.00 | 0.00 | 0.00 | 29 | 1020.6 |
| 20260831214057 | 77 | 52 | 1.0 | 7.0 | 0.00 | 0.00 | 0.00 | 29 | 1020.9 |
| 20260831213556 | 76 | 0 | 1.0 | 13.0 | 0.00 | 0.00 | 0.00 | 29 | 1020.9 |
| 20260831213101 | 74 | 160 | 1.0 | 13.0 | 0.00 | 0.00 | 0.00 | 30 | 1021.1 |
| 20260831212556 | 74 | 69 | 6.0 | 13.0 | 0.00 | 0.00 | 0.00 | 30 | 1020.9 |
| 20260831212059 | 75 | 134 | 3.0 | 13.0 | 0.00 | 0.00 | 0.00 | 31 | 1021.0 |
| 20260831211606 | 74 | 123 | 5.0 | 17.0 | 0.00 | 0.00 | 0.00 | 30 | 1021.1 |
| 20260831211057 | 74 | 148 | 6.0 | 17.0 | 0.00 | 0.00 | 0.00 | 30 | 1021.0 |
| 20260831210556 | 74 | 76 | 6.0 | 17.0 | 0.00 | 0.00 | 0.00 | 30 | 1021.2 |
| 20260831210106 | 75 | 32 | 7.0 | 13.0 | 0.00 | 0.00 | 0.00 | 30 | 1021.1 |
| 20260831205559 | 74 | 97 | 6.0 | 18.0 | 0.00 | 0.00 | 0.00 | 32 | 1021.1 |
| 20260831205057 | 74 | 129 | 6.0 | 18.0 | 0.00 | 0.00 | 0.00 | 32 | 1021.2 |
| 20260831204603 | 74 | 30 | 7.0 | 19.0 | 0.00 | 0.00 | 0.00 | 32 | 1021.3 |
| 20260831204057 | 74 | 117 | 7.0 | 19.0 | 0.00 | 0.00 | 0.00 | 32 | 1021.3 |
| 20260831203557 | 73 | 140 | 8.0 | 19.0 | 0.00 | 0.00 | 0.00 | 32 | 1021.3 |
| 20260831203107 | 73 | 164 | 8.0 | 19.0 | 0.00 | 0.00 | 0.00 | 32 | 1021.3 |
| 20260831202558 | 73 | 97 | 8.0 | 19.0 | 0.00 | 0.00 | 0.00 | 33 | 1021.2 |
| 20260831202058 | 72 | 55 | 7.0 | 23.0 | 0.00 | 0.00 | 0.00 | 32 | 1021.4 |
| 20260831201603 | 73 | 136 | 8.0 | 23.0 | 0.00 | 0.00 | 0.00 | 33 | 1021.4 |
| 20260831201058 | 73 | 175 | 8.0 | 18.0 | 0.00 | 0.00 | 0.00 | 33 | 1021.4 |
| 20260831200558 | 73 | 68 | 9.0 | 16.0 | 0.00 | 0.00 | 0.00 | 33 | 1021.4 |
| 20260831200107 | 72 | 104 | 6.0 | 20.0 | 0.00 | 0.00 | 0.00 | 34 | 1021.5 |
| 20260831195558 | 72 | 51 | 11.0 | 20.0 | 0.00 | 0.00 | 0.00 | 33 | 1021.4 |
| 20260831195057 | 71 | 113 | 10.0 | 18.0 | 0.00 | 0.00 | 0.00 | 33 | 1021.6 |
| 20260831194640 | 71 | 107 | 10.0 | 19.0 | 0.00 | 0.00 | 0.00 | 33 | 1021.7 |
| 20260831194057 | 72 | 104 | 8.0 | 19.0 | 0.00 | 0.00 | 0.00 | 33 | 1021.7 |
| 20260831193558 | 72 | 69 | 9.0 | 19.0 | 0.00 | 0.00 | 0.00 | 32 | 1021.7 |
| 20260831193104 | 71 | 100 | 8.0 | 21.0 | 0.00 | 0.00 | 0.00 | 34 | 1021.8 |